Regional Weather Roundup
Issued by NWS Kansas City/Pleasant Hill, MO

Home | Current Version | Previous Version | Text Only | Print | Product List | Glossary On
Versions: 1 2 3 4 5 6 7 8 9 10 11 12 13 14 15 16 17 18 19 20 21 22 23 24 25 26 27 28 29 30 31 32 33 34 35 36 37 38 39 40 41 42 43 44 45 46 47 48 49 50
000
ASUS43 KEAX 261211
RWREAX

WEATHER ROUNDUP FOR EASTERN KANSAS AND NORTHWEST MISSOURI
NATIONAL WEATHER SERVICE KANSAS CITY/PLEASANT HILL MO
700 AM CDT TUE MAY 26 2015

KSZ040-057-103>105-MOZ028-029-037-043-261300-
...KANSAS CITY METROPOLITAN AREA...

CITY           SKY/WX    TMP DP  RH WIND       PRES   REMARKS
K.C. INTL      CLOUDY    60  60 100 SW8       29.84R VSB 1
6HR MIN TEMP:  59; 6HR MAX TEMP:  62; 6HR PCP:  0.41;

K.C. DOWNTOWN  CLOUDY    62  59  90 SW7       29.83R
6HR MIN TEMP:  62; 6HR MAX TEMP:  64;

LEES SUMMIT    LGT RAIN  61  59  93 SW6       29.84R
6HR MIN TEMP:  60; 6HR MAX TEMP:  68; 6HR PCP:  0.51;

OLATHE - IXD   CLOUDY    60  59  96 SW10      29.86R
6HR MIN TEMP:  60; 6HR MAX TEMP:  62; 6HR PCP:  0.13;

OLATHE - OJC   CLOUDY    61  60  97 SW6       29.85R
6HR MIN TEMP:  60; 6HR MAX TEMP:  63; 6HR PCP:  0.24;

LAWRENCE       CLOUDY    61  59  93 SW8       29.84R

$$

MOZ001>008-011>017-020>025-030>033-038>040-044>046-053-054-261300-
...NORTHERN AND CENTRAL MISSOURI...

CITY           SKY/WX    TMP DP  RH WIND       PRES   REMARKS
ST. JOSEPH     CLOUDY    61  59  93 S6        29.81R
6HR MIN TEMP:  61; 6HR MAX TEMP:  62; 6HR PCP:  0.49;

MOSBY          DRIZZLE   61  61 100 S5        29.82R
WHITEMAN AFB   CLOUDY    62  61  96 SW6       29.82F
6HR MIN TEMP:  62; 6HR MAX TEMP:  71; 6HR PCP:  0.01;

CLINTON        CLOUDY    63  63 100 SW5       29.86R FOG
SEDALIA        CLOUDY    65  60  84 SW7       29.85R
6HR MIN TEMP:  65; 6HR MAX TEMP:  71; 6HR PCP:  0.01;

WARSAW         NOT AVBL
CHILLICOTHE      N/A     62  61  96 CALM      29.80R
6HR MIN TEMP:  62; 6HR MAX TEMP:  68; 6HR PCP:  0.65;

KIRKSVILLE     CLOUDY    66  63  90 S15       29.78S
6HR MIN TEMP:  65; 6HR MAX TEMP:  70; 6HR PCP:  0.05;


$$

MOZ041-047>049-056>058-063>065-088>090-097-261300-
...EASTERN AND SOUTHERN MISSOURI...

CITY           SKY/WX    TMP DP  RH WIND       PRES   REMARKS
ST. LOUIS INTL LGT RAIN  74  67  78 S18G25    29.85R
6HR MIN TEMP:  73; 6HR MAX TEMP:  74; 6HR PCP: TRACE;

SPIRIT OF STL  LGT RAIN  68  67  96 W10       29.85R FOG
COLUMBIA       CLOUDY    65  63  93 S9        29.84S
JEFFERSON CITY CLOUDY    66  62  87 S8        29.85R
ROLLA          CLOUDY    63  61  93 S10       29.88R
OSAGE BEACH    CLOUDY    64  61  88 S9        29.87R
SPRINGFIELD    CLOUDY    62  58  86 SW15      29.91R
BRANSON        CLOUDY    59  57  94 CALM      29.95R
JOPLIN         CLOUDY    62  60  93 SW8       29.91R
WEST PLAINS    MOSUNNY   61  59  93 SW6       29.95R

$$

IAZ060-094-KSZ022-034>040-054-083-096-NEZ052-066-093-261300-
...KANSAS...SOUTHEAST NEBRASKA AND IOWA...

CITY           SKY/WX    TMP DP  RH WIND       PRES   REMARKS
TOPEKA         CLOUDY    61  60  97 S8        29.83R
6HR MIN TEMP:  60; 6HR MAX TEMP:  62; 6HR PCP:  0.19;

MANHATTAN      CLOUDY    59  58  96 SW6       29.81R
EMPORIA        CLOUDY    59  58  96 SE9       29.86R
CHANUTE        CLOUDY    61  60  97 SW8       29.90R
WICHITA        MOCLDY    56  56 100 S5        29.90R
OMAHA          CLOUDY    61  59  93 S6        29.78R
LINCOLN        CLOUDY    61  57  87 W5        29.77R
FALLS CITY     LGT RAIN  60  58  92 S5        29.77S
LAMONI         LGT RAIN  62  59  90 N7        29.76F FOG
DES MOINES     LGT RAIN  62  59  90 NE3       29.78S FOG

$$



USA.gov is the U.S. government's official web portal to all federal, state and local government web resources and services.